Location: Unspecified
(35.6961°N, 0.0000°E)
Time: 05:15:41
(UTC+00:00)

Vanguard 2 Rocket - Pass Details

Date: 26 May 2019
Orbit: 554 x 3326 km, 32.9° (Epoch: 19 June)

Event Time Altitude Azimuth Distance (km) Brightness Sun altitude
Rises 04:19:11 0° 233° (SW) 7,247 - -6.0°
Exits shadow 04:21:52 - 232° (SW) 6,724 10.6 -5.5°
Reaches altitude 10° 04:24:08 10° 230° (SW) 6,278 10.5 -5.1°
Maximum altitude 04:43:40 59° 158° (SSE) 3,204 9.7 -1.6°
Drops below altitude 10° 04:57:25 10° 83° (E) 4,607 12.1 0.9°
Sets 05:00:25 0° 80° (E) 5,296 12.8 1.4°
